Regional Weather Roundup
Issued by NWS

Home | Current Version | Previous Version | Text Only | Print | Product List | Glossary Off
Versions: 1 2 3 4 5 6 7 8 9 10 11 12 13 14 15 16 17 18 19 20 21 22 23 24 25 26 27 28 29 30 31 32 33 34 35 36 37 38 39 40 41 42 43 44 45 46 47 48 49 50

000
ASUS43 KLSX 241407
RWRMO

WEATHER SUMMARY FOR MISSOURI
NATIONAL WEATHER SERVICE SPRINGFIELD MO
900 AM CDT SAT JUN 24 2017

NOTE: "FAIR" INDICATES FEW OR NO CLOUDS BELOW 12,000 FEET WITH NO
       SIGNIFICANT WEATHER AND/OR OBSTRUCTIONS TO VISIBILITY.
       CURRENT SKY AND/OR WEATHER CONDITIONS ARE NOT AVAILABLE FOR
       CHILLICOTHE AND FARMINGTON.

MOZ001>031-035>038-043-044-053-054-241500-
...NORTHERN AND WESTERN MISSOURI...

CITY           SKY/WX    TMP DP  RH WIND       PRES   REMARKS
KANSAS CTY INT SUNNY     68  49  50 N5        30.21R
KANSAS C DTWN  SUNNY     70  49  47 N6        30.20R
LEE`S SUMMIT   SUNNY     69  49  48 N9        30.21R
ST JOSEPH      SUNNY     66  53  63 N5        30.20R
CHILLICOTHE      N/A     68  49  50 VRB6      30.18R
KIRKSVILLE     SUNNY     66  50  56 NW7       30.15R

$$
MOZ066>068-077>081-088>096-101>105-241500-
...SOUTHWEST MISSOURI...

CITY           SKY/WX    TMP DP  RH WIND       PRES   REMARKS
SPRINGFIELD    MOSUNNY   69  57  65 NE5       30.18R
JOPLIN         CLOUDY    71  59  65 CALM      30.21R
BRANSON        PTSUNNY   68  57  68 CALM      30.20R

$$
MOZ032>034-039>042-045>050-055>058-069>072-241500-
...CENTRAL MISSOURI...

CITY           SKY/WX    TMP DP  RH WIND       PRES   REMARKS
COLUMBIA       SUNNY     69  57  65 NW7       30.15S
JEFFERSON CITY SUNNY     69  57  65 W5        30.15R
ROLLA          SUNNY     67  57  70 NW6       30.14R
SEDALIA        SUNNY     69  58  67 NW6       30.19R
WHITEMAN AFB   SUNNY     68  56  66 NW8       30.18R
OSAGE BEACH    SUNNY     69  56  62 VRB5      30.17R

$$
MOZ051-052-059>065-241500-
...EAST CENTRAL MISSOURI...

CITY           SKY/WX    TMP DP  RH WIND       PRES   REMARKS
ST LOUIS INTL  MOSUNNY   73  53  49 NW14      30.10S
SPIRIT OF STL  MOSUNNY   71  53  52 NW10      30.10S
ST CHARLES     SUNNY     71  52  50 NW10      30.09S

$$
MOZ072>076-082>087-097>100-106>115-241500-
...SOUTH CENTRAL AND SOUTHEAST MISSOURI...

CITY           SKY/WX    TMP DP  RH WIND       PRES   REMARKS
CAPE GIRARDEAU SUNNY     72  58  61 NW10      30.08S
FARMINGTON     SUNNY     69  55  60 NW9       30.13R
POPLAR BLUFF   SUNNY     72  60  66 N10       30.10R
WEST PLAINS    SUNNY     70  56  61 N6        30.17R

$$




USA.gov is the U.S. government's official web portal to all federal, state and local government web resources and services.